Starlink 33742

operational
NORAD ID: 63366 Int'l Des: 2025-063 Owner: SPXS Country: US Constellation: starlink
LEOCIRCULAR

Starlink 33742について

説明を読み込み中...

リアルタイム位置

3D地球を読み込み中...

次回通過

高度履歴

Altitude vs Time

uPlot chart will show altitude changes over time

軌道要素

1 63366U 25063D 25258.42597250 .00124927 00000-0 30720-2 0 9995
2 63366 53.1581 147.4119 0001346 81.5323 278.5834 15.39721415 27860
Epoch: Sep 15, 2025 • Age: 17 hours

現在のステータス

高度 447.0 km
速度 7.65 km/s
衛星直下点 26.21°N, 117.65°E
打ち上げ日 Mar 26, 2025
運用期間 0.4 years
タイプ internet

技術仕様

分類 Payload
質量 575.00 kg
乾燥質量 530.00 kg
総質量 575.00 kg
長さ 0.30 m
直径 4.10 m
スパン 29.00 m
形状 Box + pan
製造者 SPXS
バスタイプ Starlink V2MO
フェーズステータス In Orbit
所有者/国 SPXS/US

大規模コンステレーション

Loading constellations...